Temperature
30 29 29 30 30 30 29 29 28 29 30 29 28 28 27 27 26 26 24 24 23 22 22 21 20 19 19 18 18 18 17 17 17 16 16 16 16 16 16 16 16 15 15 15
30 29 30 31 30 30 29 29 29 29 29 29 28 27 27 27 26 25 24 23 23 22 21 20 20 19 19 18 18 17 17 17 16 16 16 16 16 16 15 15 15 15 15 15
29 30 31 30 30 29 29 28 28 28 29 29 28 26 26 26 25 24 24 23 22 22 21 20 19 19 18 18 18 17 17 16 16 16 16 16 15 15 15 15 15 15 15 14
29 30 30 29 29 29 28 29 29 28 28 27 27 25 25 25 24 24 23 22 22 21 21 20 19 19 18 18 17 17 16 16 16 16 15 15 15 15 15 15 15 15 15 14
29 30 29 28 29 28 28 29 29 28 28 27 27 25 24 24 23 23 23 22 21 21 20 20 19 18 18 17 17 16 16 16 16 16 15 15 15 15 15 15 15 15 14 14
29 30 29 29 29 29 29 29 28 28 28 25 26 25 23 22 22 23 23 22 20 20 20 19 19 18 17 17 16 16 16 16 16 15 15 15 15 15 15 14 14 14 14 14
28 29 29 29 28 29 28 27 26 26 25 25 26 25 22 22 23 23 22 21 20 20 19 18 18 18 17 17 16 16 15 15 15 15 15 15 15 14 14 14 14 14 14 14
27 27 28 28 28 27 27 27 25 24 24 24 25 23 22 23 22 22 21 21 20 19 19 18 18 18 17 17 16 16 15 15 15 15 14 14 14 14 14 14 14 14 14 14
26 26 28 28 28 28 27 27 27 26 25 24 24 23 22 22 22 22 21 20 20 19 18 18 17 17 17 16 16 16 15 15 15 15 14 14 14 14 14 14 14 14 13 13
26 25 27 28 28 28 27 27 26 25 23 23 23 22 21 21 21 21 21 20 19 19 18 18 17 17 16 16 16 15 15 15 15 14 14 14 14 14 14 13 13 13 13 13
26 25 26 27 26 26 26 26 25 24 24 22 21 21 21 21 21 21 21 20 19 18 18 18 17 17 16 16 16 15 15 15 14 14 14 14 14 14 13 13 13 13 13 13
26 25 24 25 27 27 26 25 25 23 23 23 22 20 21 21 21 21 21 20 19 18 18 17 17 16 16 16 15 15 15 15 14 14 14 14 13 13 13 13 13 13 13 13
24 23 23 24 25 26 25 25 25 24 23 22 21 21 21 21 21 20 20 19 19 18 18 17 17 16 15 15 15 15 15 14 14 14 14 14 13 13 13 13 13 13 13 13
23 23 23 22 23 24 24 25 25 24 23 22 22 22 21 21 21 20 19 19 18 18 17 17 16 16 15 15 15 15 14 14 14 14 14 13 13 13 13 13 13 13 13 13
24 23 23 23 24 25 24 24 24 24 23 22 22 21 21 20 20 20 19 19 18 18 17 16 16 15 15 15 14 14 14 14 14 14 14 13 13 13 13 13 13 13 13 12
23 22 23 23 24 24 24 24 24 23 23 22 22 21 21 20 20 19 19 18 18 17 17 16 15 15 14 14 14 14 14 14 14 14 14 14 13 13 13 13 13 13 12 12
23 22 22 22 24 24 23 23 23 23 23 22 21 21 20 20 19 19 18 18 17 17 16 16 15 14 14 14 14 14 14 14 14 14 14 14 13 13 13 13 13 12 12 12
22 22 22 22 23 21 22 24 24 23 22 22 21 21 20 19 19 18 17 17 17 16 16 15 15 14 14 14 14 14 14 14 14 14 14 13 13 13 13 13 12 12 12 12
23 22 22 22 22 22 22 23 23 22 21 21 21 20 20 19 19 18 17 17 16 16 15 15 15 14 14 14 14 14 14 14 14 13 13 13 13 13 13 12 12 12 12 12
23 22 21 22 21 21 21 22 23 22 20 20 20 19 19 19 18 18 17 16 16 16 15 15 15 14 14 14 14 14 13 13 13 13 13 13 13 13 13 12 12 12 12 12
22 22 22 21 21 21 21 22 22 20 19 19 19 19 18 18 17 17 16 16 15 15 15 15 14 14 14 14 14 13 13 13 13 13 13 13 13 13 13 12 12 12 12 12
22 22 22 21 21 20 21 21 20 18 18 18 18 18 17 17 16 16 16 15 15 15 15 15 14 14 14 14 14 13 13 13 13 13 13 13 13 13 13 12 12 12 12 12
22 22 21 21 20 20 20 19 19 18 18 18 18 17 17 16 16 16 16 15 15 15 15 14 14 14 14 14 14 13 13 13 13 13 13 13 13 13 13 13 12 12 12 12
22 22 21 20 20 20 20 19 18 18 18 17 17 17 17 16 16 16 15 15 15 15 14 14 14 14 14 14 14 14 13 13 13 13 13 13 13 13 13 13 13 13 12 12
21 21 21 20 20 20 19 18 18 17 17 17 17 17 16 16 16 15 15 15 15 14 14 14 14 14 14 14 14 14 14 13 13 13 13 13 13 13 13 13 13 13 13 12
21 20 20 19 19 19 18 17 17 17 17 17 17 16 16 16 15 15 15 15 14 14 14 14 14 14 14 14 14 14 14 14 13 13 13 13 13 13 13 13 13 13 13 13
Wind_Speed
10 9 7 6 6 8 9 8 10 7 3 5 4 4 2 2 1 3 3 2 2 2 3 5 5 3 3 3 3 3 1 1 1 1 2 2 2 2 2 2 3 3 2 2
9 7 6 7 7 10 9 9 10 7 4 6 5 5 4 1 2 4 4 4 5 5 4 4 4 2 2 3 3 3 2 1 1 0 1 1 2 2 2 2 2 3 2 2
8 6 6 7 9 10 11 10 11 11 9 8 7 5 1 4 4 6 6 6 5 6 5 3 3 2 1 2 2 1 2 1 1 1 1 1 1 2 2 2 2 3 3 3
6 5 6 7 9 10 11 10 12 12 10 9 8 5 0 4 5 6 5 5 5 6 6 4 3 2 1 1 1 1 2 2 2 1 1 2 2 2 2 2 2 3 3 3
6 5 5 7 8 9 12 13 13 14 11 10 7 4 1 4 5 4 5 6 7 7 7 6 4 3 3 2 1 1 2 2 2 1 1 2 2 2 1 1 2 3 3 4
8 5 3 6 9 8 12 13 12 11 8 7 6 4 4 6 6 7 7 6 6 7 7 6 5 5 4 3 1 1 2 2 2 1 1 1 2 2 2 2 2 2 2 3
6 3 0 4 8 7 10 11 7 5 4 4 4 2 5 6 7 8 8 7 7 7 7 6 6 5 4 3 2 2 2 2 2 1 1 1 2 3 3 3 2 2 2 3
7 4 3 4 6 8 9 9 7 7 8 8 5 2 4 7 7 8 8 8 8 7 7 7 7 6 4 3 3 2 2 2 1 1 1 0 1 2 1 2 2 2 2 2
7 5 4 4 5 6 8 9 9 8 9 8 3 4 6 8 9 9 9 8 8 8 7 7 7 6 5 5 4 3 2 2 1 1 1 1 0 1 1 1 1 1 1 1
8 9 7 5 5 4 6 8 6 6 6 6 4 2 5 8 9 9 9 8 7 7 7 6 5 6 6 5 4 3 2 1 1 1 0 0 0 1 0 1 1 0 1 2
7 6 7 6 4 6 6 7 6 6 5 6 6 3 5 7 8 9 7 7 8 8 8 5 5 6 6 5 3 3 2 1 1 1 0 1 1 1 0 0 0 1 2 3
5 5 7 8 4 3 5 6 6 5 6 6 6 2 4 6 7 7 8 7 6 7 7 6 7 7 7 6 5 4 3 2 1 1 1 1 1 1 1 1 1 2 3 3
6 4 6 3 2 1 4 5 5 5 5 5 6 3 2 4 6 8 9 8 7 7 8 7 7 7 7 6 5 5 4 3 3 2 1 1 1 1 1 1 2 2 3 2
3 4 5 6 8 9 8 7 7 6 6 6 7 7 6 8 9 9 9 8 7 6 7 7 6 6 6 6 5 4 4 4 3 2 1 1 1 0 1 1 1 2 2 1
3 4 6 8 9 9 9 7 7 7 6 7 8 8 9 9 9 9 9 8 7 6 6 6 6 6 6 6 5 5 4 4 4 2 2 2 1 0 1 1 2 1 1 1
1 4 7 9 8 8 7 7 6 7 6 6 6 6 8 8 8 9 9 8 8 7 6 6 6 6 5 5 5 5 4 4 3 2 2 2 2 1 1 1 2 2 1 1
3 5 7 8 8 9 6 5 5 5 5 5 6 6 7 9 9 9 8 9 8 8 7 6 5 4 4 4 4 4 4 4 3 2 2 2 1 2 2 2 2 2 2 1
4 6 5 8 8 5 2 4 4 4 5 5 5 6 7 7 7 5 7 8 8 7 7 6 5 4 3 3 4 4 4 3 3 3 3 3 3 2 2 3 2 2 2 1
3 4 5 5 7 4 2 3 4 5 4 7 7 7 8 8 5 5 9 8 7 6 5 4 4 3 2 3 3 4 3 3 3 3 2 2 2 2 2 3 2 2 2 2
5 4 5 6 8 5 3 6 6 3 1 8 8 7 8 9 7 5 9 9 8 6 4 4 3 2 2 2 2 3 3 3 3 2 2 2 2 2 2 3 2 1 1 2
5 6 7 8 8 2 4 6 6 3 4 7 8 8 8 8 6 7 7 7 6 5 4 4 3 3 2 2 2 2 3 3 3 3 2 3 2 2 1 1 2 2 2 3
6 6 5 6 7 2 6 4 5 4 5 6 7 7 7 7 7 6 6 6 6 5 4 4 3 3 3 2 1 1 2 3 3 2 2 2 2 2 2 2 1 2 2 3
4 3 4 3 3 2 4 4 3 4 5 6 7 7 7 8 8 7 6 6 5 5 4 4 4 3 2 2 2 2 2 2 3 2 2 2 3 2 1 1 1 2 2 3
2 2 4 4 2 1 2 3 4 4 5 6 7 7 7 8 8 7 6 5 5 5 4 3 3 3 3 2 2 2 2 2 2 2 2 3 3 2 2 2 2 2 2 3
5 4 6 7 5 4 2 5 6 5 6 7 7 7 7 7 7 7 6 5 5 5 4 3 3 3 4 3 3 2 2 2 3 2 2 3 3 2 2 2 2 1 1 1
7 5 5 5 3 4 5 6 6 6 6 7 8 7 7 6 6 6 6 5 4 5 4 4 3 4 4 3 3 2 2 2 2 3 4 4 3 3 3 2 1 0 1 1
Wind_Direction
243 244 261 286 294 291 297 302 296 294 300 295 296 297 259 168 156 79 64 52 59 49 58 74 72 69 96 120 123 127 141 169 209 191 200 204 207 216 210 203 176 165 176 195
255 259 279 293 301 297 294 293 292 299 308 291 280 274 271 107 68 71 55 40 24 30 49 66 96 112 131 137 139 146 143 179 197 186 232 216 223 230 212 212 172 169 177 178
272 291 309 305 302 306 303 304 311 307 297 284 274 280 208 120 87 61 52 38 27 20 26 40 71 89 102 120 136 149 142 143 148 186 225 236 211 236 222 200 187 195 189 188
273 291 302 306 313 319 303 309 304 291 284 280 272 281 122 115 90 56 41 26 19 21 23 32 31 33 55 79 113 126 125 145 165 176 228 239 234 231 235 218 195 199 192 194
287 298 302 308 314 310 307 309 295 283 277 279 279 282 73 69 53 44 34 28 15 18 19 15 25 20 37 29 83 138 147 159 160 175 219 250 250 248 238 215 201 210 196 194
278 280 305 319 311 304 310 304 286 272 271 278 308 297 64 43 21 29 27 31 17 18 17 20 28 35 39 37 78 139 153 159 156 167 218 255 264 247 242 233 223 225 211 200
281 262 10 341 319 313 320 321 310 299 288 301 331 6 68 56 31 28 20 20 20 21 17 14 18 26 33 33 53 110 136 150 157 166 192 260 270 252 230 226 217 225 230 211
315 323 6 356 332 319 319 324 322 314 312 314 322 51 77 55 44 38 30 23 27 21 14 9 15 18 18 22 44 62 115 125 141 162 159 209 290 279 263 252 241 238 244 232
329 318 335 335 320 317 322 324 320 303 290 293 340 79 85 38 24 24 24 22 20 16 12 12 12 18 17 28 37 51 75 94 94 71 85 134 285 299 292 285 274 253 251 235
316 310 317 312 297 313 329 330 335 325 325 317 325 28 16 8 3 12 14 14 12 12 10 11 24 25 23 26 53 71 76 89 83 62 261 38 134 320 15 271 298 298 249 249
314 303 305 312 318 336 338 343 342 329 326 314 317 357 21 17 7 360 8 9 10 11 1 7 28 26 22 20 33 44 39 45 59 48 87 33 38 350 323 270 302 280 259 246
336 306 302 302 321 354 343 341 338 324 319 315 311 343 23 8 4 358 8 10 9 9 360 15 26 22 20 19 22 26 17 3 7 76 87 56 23 348 340 328 292 281 263 245
337 314 296 272 246 341 349 339 327 311 304 310 307 313 22 3 10 9 11 8 8 15 15 18 23 21 14 13 18 16 9 6 9 30 65 46 347 359 331 326 310 298 275 254
311 313 308 308 317 324 324 329 327 316 308 310 314 324 351 6 10 9 8 6 7 21 20 15 18 16 11 11 14 13 12 4 358 9 29 354 339 338 337 334 314 301 290 274
330 306 307 303 304 306 314 326 330 323 311 304 315 330 358 1 4 6 8 5 6 13 16 14 12 9 4 6 4 6 5 358 351 350 359 8 357 331 357 341 318 310 294 303
339 303 302 294 291 295 301 316 322 323 320 317 319 338 7 0 4 5 5 5 2 1 4 9 8 358 356 357 359 1 358 348 339 349 9 27 11 348 344 351 356 8 10 5
304 292 296 292 298 301 296 322 338 338 349 347 339 355 6 1 7 6 7 9 4 357 2 5 360 351 349 356 358 350 347 343 344 354 13 35 16 13 8 12 40 31 23 17
290 304 290 291 297 287 323 30 16 357 11 7 2 3 6 6 3 17 21 10 357 357 1 357 349 348 348 352 349 342 341 346 356 9 21 27 23 16 8 31 35 17 5 356
223 269 288 294 297 275 307 7 4 0 15 22 13 3 358 356 348 35 29 13 2 2 5 347 338 344 350 343 336 335 339 348 357 6 13 11 9 9 16 24 14 2 346 323
198 223 259 288 297 301 2 16 4 330 357 25 14 3 352 344 334 352 2 358 356 0 6 348 348 353 344 339 335 340 343 348 349 349 352 3 4 358 12 16 3 349 321 311
231 239 252 275 280 279 3 358 341 322 3 4 358 354 349 346 338 333 338 345 345 350 354 348 342 341 338 336 346 350 349 341 332 332 349 351 342 348 25 16 1 352 329 322
276 279 271 275 279 299 17 8 22 19 358 347 347 351 351 341 333 333 336 341 339 340 340 335 330 331 333 331 330 341 329 323 319 327 339 333 325 319 350 1 346 346 335 308
264 301 303 316 335 54 37 35 29 16 348 341 345 344 341 331 328 329 332 335 330 330 330 324 316 314 318 316 317 318 316 320 328 336 326 318 309 304 306 287 293 287 282 296
261 311 283 281 255 273 335 23 23 5 344 338 337 334 331 323 322 324 327 327 322 318 316 310 308 302 298 293 297 308 310 301 306 302 303 296 290 280 284 282 277 297 329 330
304 294 282 277 287 308 345 12 357 351 345 340 336 332 327 323 321 324 321 319 317 313 311 300 293 286 288 288 284 279 287 285 297 291 286 278 269 278 278 293 317 319 326 317
269 273 274 288 345 327 327 340 340 336 334 333 330 327 324 319 319 323 320 318 313 310 303 295 289 286 287 283 283 289 282 280 280 282 283 280 274 267 256 242 242 298 221 210
Height
1472 1472 1471 1466 1464 1464 1463 1467 1468 1462 1456 1461 1465 1466 1465 1467 1470 1472 1474 1476 1477 1478 1479 1479 1481 1481 1482 1482 1481 1482 1482 1483 1484 1484 1485 1485 1486 1486 1487 1488 1488 1489 1489 1489
1469 1470 1464 1461 1461 1462 1463 1466 1465 1459 1457 1461 1464 1465 1463 1465 1469 1472 1474 1476 1477 1477 1477 1479 1479 1480 1481 1481 1481 1481 1481 1481 1482 1482 1483 1484 1484 1484 1485 1485 1486 1486 1486 1486
1471 1466 1462 1462 1463 1465 1464 1466 1465 1464 1459 1458 1463 1468 1465 1466 1470 1473 1475 1476 1477 1477 1478 1478 1479 1479 1479 1479 1479 1479 1479 1480 1480 1481 1481 1482 1482 1482 1483 1483 1483 1483 1484 1484
1466 1462 1463 1464 1465 1466 1469 1460 1460 1461 1464 1467 1463 1480 1472 1468 1472 1474 1477 1478 1478 1477 1478 1478 1477 1477 1477 1477 1478 1478 1478 1478 1478 1479 1479 1480 1480 1480 1480 1481 1481 1481 1481 1482
1468 1464 1465 1468 1467 1466 1464 1458 1458 1458 1460 1464 1462 1474 1479 1471 1477 1478 1478 1479 1479 1478 1477 1478 1477 1476 1476 1476 1476 1476 1476 1477 1476 1476 1477 1478 1478 1478 1478 1479 1478 1479 1479 1479
1465 1463 1464 1466 1464 1462 1460 1458 1455 1454 1459 1476 1470 1475 1487 1483 1482 1480 1479 1480 1480 1479 1478 1477 1477 1476 1475 1475 1475 1475 1475 1475 1475 1475 1475 1476 1476 1476 1476 1476 1477 1477 1477 1478
1469 1464 1464 1466 1467 1464 1463 1468 1474 1477 1479 1480 1467 1474 1490 1483 1481 1481 1481 1481 1481 1480 1479 1478 1477 1476 1475 1474 1474 1473 1473 1474 1474 1474 1474 1474 1474 1474 1474 1474 1475 1475 1475 1476
1478 1477 1468 1467 1470 1472 1468 1471 1486 1495 1492 1482 1472 1483 1487 1482 1483 1483 1483 1483 1483 1481 1480 1479 1477 1476 1475 1474 1473 1473 1472 1472 1473 1473 1473 1473 1473 1473 1473 1473 1473 1473 1474 1474
1485 1482 1468 1468 1468 1469 1472 1471 1467 1476 1479 1483 1481 1486 1485 1483 1483 1483 1483 1484 1484 1483 1481 1480 1478 1477 1476 1475 1473 1473 1473 1473 1472 1472 1472 1472 1472 1471 1471 1471 1471 1471 1471 1472
1481 1486 1474 1468 1467 1467 1469 1469 1473 1481 1493 1498 1490 1492 1496 1490 1488 1485 1485 1485 1485 1483 1482 1480 1479 1478 1477 1475 1474 1473 1473 1473 1472 1472 1472 1471 1471 1470 1470 1469 1469 1469 1469 1470
1481 1488 1481 1473 1475 1476 1474 1475 1478 1481 1485 1499 1504 1503 1492 1491 1489 1488 1486 1486 1485 1484 1483 1481 1479 1479 1477 1476 1475 1474 1473 1473 1472 1471 1471 1470 1470 1469 1468 1468 1468 1467 1467 1467
1484 1487 1490 1481 1472 1471 1474 1478 1481 1493 1494 1491 1498 1505 1489 1490 1488 1488 1487 1486 1486 1485 1483 1481 1480 1479 1478 1476 1475 1474 1473 1472 1471 1471 1470 1469 1469 1468 1467 1467 1466 1466 1465 1465
1489 1492 1497 1489 1483 1477 1478 1478 1479 1482 1487 1493 1501 1502 1487 1488 1488 1488 1487 1487 1486 1485 1484 1482 1481 1480 1478 1477 1476 1474 1473 1472 1471 1470 1470 1469 1468 1467 1466 1465 1465 1464 1464 1463
1491 1493 1499 1504 1496 1486 1483 1480 1479 1483 1490 1494 1494 1493 1488 1487 1487 1488 1488 1487 1487 1486 1485 1483 1482 1481 1479 1477 1476 1475 1474 1473 1472 1471 1470 1469 1468 1467 1466 1465 1464 1463 1462 1462
1491 1495 1493 1490 1485 1482 1482 1481 1481 1483 1486 1492 1492 1491 1490 1489 1489 1489 1489 1488 1487 1486 1485 1484 1483 1482 1480 1478 1477 1475 1474 1473 1472 1471 1470 1468 1468 1467 1466 1464 1463 1462 1461 1461
1491 1496 1494 1492 1484 1481 1482 1481 1481 1483 1483 1486 1488 1491 1490 1490 1490 1489 1489 1489 1488 1487 1486 1485 1484 1482 1480 1479 1477 1476 1474 1473 1472 1471 1470 1469 1467 1466 1465 1464 1462 1461 1461 1460
1491 1496 1497 1494 1484 1483 1490 1483 1483 1484 1483 1487 1492 1493 1490 1490 1491 1491 1490 1489 1489 1488 1486 1485 1484 1482 1481 1479 1478 1476 1474 1473 1472 1471 1470 1468 1468 1466 1465 1464 1462 1461 1460 1459
1494 1496 1496 1493 1492 1502 1492 1480 1481 1484 1486 1487 1489 1490 1491 1492 1492 1492 1491 1491 1489 1488 1487 1486 1484 1482 1481 1479 1477 1476 1474 1473 1472 1471 1470 1469 1467 1466 1465 1464 1463 1461 1460 1459
1491 1495 1496 1495 1497 1492 1487 1482 1482 1487 1490 1490 1491 1492 1492 1492 1491 1491 1492 1491 1490 1488 1487 1486 1484 1483 1481 1479 1478 1476 1475 1473 1472 1471 1470 1469 1468 1466 1465 1464 1463 1461 1460 1459
1488 1491 1496 1495 1500 1501 1493 1485 1484 1487 1493 1494 1493 1494 1494 1493 1492 1492 1492 1491 1490 1488 1487 1485 1484 1483 1481 1479 1478 1476 1475 1473 1472 1472 1471 1469 1468 1467 1465 1464 1463 1462 1460 1459
1490 1491 1493 1495 1497 1494 1491 1487 1487 1495 1500 1496 1495 1495 1495 1495 1496 1495 1492 1491 1489 1488 1487 1485 1484 1482 1481 1479 1478 1476 1475 1474 1473 1472 1471 1469 1468 1467 1466 1465 1463 1462 1460 1459
1489 1491 1492 1492 1497 1500 1491 1490 1494 1499 1497 1496 1496 1496 1495 1495 1494 1493 1491 1490 1488 1487 1486 1484 1483 1482 1481 1479 1478 1476 1475 1474 1473 1472 1471 1470 1468 1467 1466 1465 1463 1462 1460 1459
1486 1489 1490 1493 1496 1494 1493 1494 1496 1496 1496 1496 1495 1495 1495 1494 1493 1492 1490 1489 1487 1486 1485 1483 1482 1481 1480 1479 1478 1476 1475 1474 1473 1471 1470 1469 1468 1467 1466 1464 1463 1461 1460 1458
1485 1487 1488 1491 1490 1492 1493 1494 1495 1495 1495 1495 1495 1494 1493 1493 1491 1490 1489 1488 1486 1485 1484 1483 1481 1480 1479 1478 1477 1476 1474 1473 1472 1471 1470 1468 1467 1466 1465 1463 1462 1461 1460 1458
1488 1489 1489 1490 1490 1491 1492 1494 1494 1494 1494 1494 1493 1493 1492 1491 1490 1489 1487 1486 1485 1484 1483 1481 1480 1479 1478 1477 1476 1475 1473 1472 1471 1470 1469 1467 1466 1465 1464 1462 1461 1460 1459 1457
1487 1489 1491 1491 1492 1494 1494 1494 1494 1494 1493 1493 1492 1491 1490 1490 1488 1487 1486 1485 1483 1482 1481 1480 1478 1477 1476 1476 1474 1473 1472 1471 1470 1468 1467 1466 1465 1464 1463 1461 1460 1458 1457 1456